Year,Month,Day,Hour,Minute,Value (Times are PST for barometer in hPa)
2012,01,24,00,00,1012.73
2012,01,24,00,01,1012.77
2012,01,24,00,02,1012.83
2012,01,24,00,03,1012.84
2012,01,24,00,04,1012.87
2012,01,24,00,05,1012.87
2012,01,24,00,06,1012.87
2012,01,24,00,07,1012.81
2012,01,24,00,08,1012.74
2012,01,24,00,09,1012.73
2012,01,24,00,10,1012.76
2012,01,24,00,11,1012.77
2012,01,24,00,12,1012.83
2012,01,24,00,13,1012.78
2012,01,24,00,14,1012.74
2012,01,24,00,15,1012.68
2012,01,24,00,16,1012.63
2012,01,24,00,17,1012.63
2012,01,24,00,18,1012.69
2012,01,24,00,19,1012.67
2012,01,24,00,20,1012.63
2012,01,24,00,21,1012.63
2012,01,24,00,22,1012.67
2012,01,24,00,23,1012.76
2012,01,24,00,24,1012.83
2012,01,24,00,25,1012.96
2012,01,24,00,26,1012.94
2012,01,24,00,27,1013.03
2012,01,24,00,28,1012.95
2012,01,24,00,29,1012.88
2012,01,24,00,30,1012.78
2012,01,24,00,31,1012.73
2012,01,24,00,32,1012.68
2012,01,24,00,33,1012.67
2012,01,24,00,34,1012.70
2012,01,24,00,35,1012.73
2012,01,24,00,36,1012.70
2012,01,24,00,37,1012.70
2012,01,24,00,38,1012.67
2012,01,24,00,39,1012.67
2012,01,24,00,40,1012.67
2012,01,24,00,41,1012.72
2012,01,24,00,42,1012.73
2012,01,24,00,43,1012.70
2012,01,24,00,44,1012.73
2012,01,24,00,45,1012.70
2012,01,24,00,46,1012.73
2012,01,24,00,47,1012.77
2012,01,24,00,48,1012.77
2012,01,24,00,49,1012.80
2012,01,24,00,50,1012.86
2012,01,24,00,51,1012.87
2012,01,24,00,52,1012.84
2012,01,24,00,53,1012.84
2012,01,24,00,54,1012.87
2012,01,24,00,55,1012.90
2012,01,24,00,56,1012.87
2012,01,24,00,57,1012.87
2012,01,24,00,58,1012.87
2012,01,24,00,59,1012.84
2012,01,24,01,00,1012.87
2012,01,24,01,01,1012.87
2012,01,24,01,02,1012.96
2012,01,24,01,03,1012.97
2012,01,24,01,04,1013.03
2012,01,24,01,05,1013.07
2012,01,24,01,06,1013.07
2012,01,24,01,07,1013.01
2012,01,24,01,08,1012.88
2012,01,24,01,09,1012.84
2012,01,24,01,10,1012.72
2012,01,24,01,11,1012.73
2012,01,24,01,12,1012.77
2012,01,24,01,13,1012.80
2012,01,24,01,14,1012.80
2012,01,24,01,15,1012.84
2012,01,24,01,16,1012.89
2012,01,24,01,17,1013.03
2012,01,24,01,18,1012.98
2012,01,24,01,19,1012.97
2012,01,24,01,20,1012.91
2012,01,24,01,21,1012.87
2012,01,24,01,22,1012.84
2012,01,24,01,23,1012.84
2012,01,24,01,24,1012.80
2012,01,24,01,25,1012.84
2012,01,24,01,26,1012.87
2012,01,24,01,27,1012.90
2012,01,24,01,28,1012.90
2012,01,24,01,29,1012.85
2012,01,24,01,30,1012.78
2012,01,24,01,31,1012.77
2012,01,24,01,32,1012.73
2012,01,24,01,33,1012.70
2012,01,24,01,34,1012.67
2012,01,24,01,35,1012.63
2012,01,24,01,36,1012.67
2012,01,24,01,37,1012.70
2012,01,24,01,38,1012.76
2012,01,24,01,39,1012.83
2012,01,24,01,40,1012.78
2012,01,24,01,41,1012.73
2012,01,24,01,42,1012.73
2012,01,24,01,43,1012.76
2012,01,24,01,44,1012.73
2012,01,24,01,45,1012.79
2012,01,24,01,46,1012.80
2012,01,24,01,47,1012.71
2012,01,24,01,48,1012.64
2012,01,24,01,49,1012.63
2012,01,24,01,50,1012.60
2012,01,24,01,51,1012.60
2012,01,24,01,52,1012.66
2012,01,24,01,53,1012.76
2012,01,24,01,54,1012.80
2012,01,24,01,55,1012.86
2012,01,24,01,56,1012.84
2012,01,24,01,57,1012.87
2012,01,24,01,58,1012.78
2012,01,24,01,59,1012.71
2012,01,24,02,00,1012.73
2012,01,24,02,01,1012.61
2012,01,24,02,02,1012.60
2012,01,24,02,03,1012.60
2012,01,24,02,04,1012.60
2012,01,24,02,05,1012.69
2012,01,24,02,06,1012.76
2012,01,24,02,07,1012.83
2012,01,24,02,08,1012.75
2012,01,24,02,09,1012.68
2012,01,24,02,10,1012.54
2012,01,24,02,11,1012.47
2012,01,24,02,12,1012.49
2012,01,24,02,13,1012.55
2012,01,24,02,14,1012.60
2012,01,24,02,15,1012.56
2012,01,24,02,16,1012.53
2012,01,24,02,17,1012.53
2012,01,24,02,18,1012.44
2012,01,24,02,19,1012.40
2012,01,24,02,20,1012.40
2012,01,24,02,21,1012.40
2012,01,24,02,22,1012.30
2012,01,24,02,23,1012.29
2012,01,24,02,24,1012.35
2012,01,24,02,25,1012.30
2012,01,24,02,26,1012.32
2012,01,24,02,27,1012.36
2012,01,24,02,28,1012.39
2012,01,24,02,29,1012.45
2012,01,24,02,30,1012.43
2012,01,24,02,31,1012.40
2012,01,24,02,32,1012.37
2012,01,24,02,33,1012.39
2012,01,24,02,34,1012.45
2012,01,24,02,35,1012.50
2012,01,24,02,36,1012.50
2012,01,24,02,37,1012.55
2012,01,24,02,38,1012.53
2012,01,24,02,39,1012.53
2012,01,24,02,40,1012.56
2012,01,24,02,41,1012.53
2012,01,24,02,42,1012.53
2012,01,24,02,43,1012.53
2012,01,24,02,44,1012.59
2012,01,24,02,45,1012.63
2012,01,24,02,46,1012.67
2012,01,24,02,47,1012.70
2012,01,24,02,48,1012.70
2012,01,24,02,49,1012.70
2012,01,24,02,50,1012.70
2012,01,24,02,51,1012.76
2012,01,24,02,52,1012.86
2012,01,24,02,53,1012.87
2012,01,24,02,54,1012.87
2012,01,24,02,55,1012.87
2012,01,24,02,56,1012.87
2012,01,24,02,57,1012.84
2012,01,24,02,58,1012.84
2012,01,24,02,59,1012.78
2012,01,24,03,00,1012.71
2012,01,24,03,01,1012.57
2012,01,24,03,02,1012.53
2012,01,24,03,03,1012.56
2012,01,24,03,06,1012.56
2012,01,24,03,07,1012.56
2012,01,24,03,08,1012.67
2012,01,24,03,09,1012.63
2012,01,24,03,10,1012.63
2012,01,24,03,11,1012.60
2012,01,24,03,12,1012.50
2012,01,24,03,13,1012.46
2012,01,24,03,14,1012.43
2012,01,24,03,15,1012.43
2012,01,24,03,16,1012.36
2012,01,24,03,17,1012.33
2012,01,24,03,18,1012.23
2012,01,24,03,19,1012.26
2012,01,24,03,20,1012.26
2012,01,24,03,21,1012.29
2012,01,24,03,22,1012.26
2012,01,24,03,23,1012.33
2012,01,24,03,24,1012.43
2012,01,24,03,25,1012.53
2012,01,24,03,26,1012.66
2012,01,24,03,27,1012.63
2012,01,24,03,28,1012.63
2012,01,24,03,29,1012.60
2012,01,24,03,30,1012.63
2012,01,24,03,31,1012.60
2012,01,24,03,32,1012.60
2012,01,24,03,33,1012.53
2012,01,24,03,34,1012.41
2012,01,24,03,35,1012.33
2012,01,24,03,36,1012.17
2012,01,24,03,37,1012.07
2012,01,24,03,38,1011.99
2012,01,24,03,39,1011.99
2012,01,24,03,40,1012.09
2012,01,24,03,41,1012.16
2012,01,24,03,42,1012.19
2012,01,24,03,43,1012.29
2012,01,24,03,44,1012.23
2012,01,24,03,45,1012.16
2012,01,24,03,46,1011.99
2012,01,24,03,47,1012.02
2012,01,24,03,48,1011.90
2012,01,24,03,49,1011.85
2012,01,24,03,50,1011.76
2012,01,24,03,51,1011.68
2012,01,24,03,52,1011.68
2012,01,24,03,53,1011.68
2012,01,24,03,54,1011.72
2012,01,24,03,55,1011.58
2012,01,24,03,56,1011.51
2012,01,24,03,57,1011.55
2012,01,24,03,58,1011.51
2012,01,24,03,59,1011.45
2012,01,24,04,00,1011.64
2012,01,24,04,01,1011.46
2012,01,24,04,02,1011.51
2012,01,24,04,03,1011.41
2012,01,24,04,04,1011.41
2012,01,24,04,05,1011.41
2012,01,24,04,06,1011.45
2012,01,24,04,07,1011.55
2012,01,24,04,08,1011.58
2012,01,24,04,09,1011.62
2012,01,24,04,10,1011.52
2012,01,24,04,11,1011.39
2012,01,24,04,12,1011.41
2012,01,24,04,13,1011.38
2012,01,24,04,14,1011.38
2012,01,24,04,15,1011.31
2012,01,24,04,16,1011.38
2012,01,24,04,17,1011.41
2012,01,24,04,18,1011.48
2012,01,24,04,19,1011.55
2012,01,24,04,20,1011.46
2012,01,24,04,21,1011.48
2012,01,24,04,22,1011.48
2012,01,24,04,23,1011.45
2012,01,24,04,24,1011.41
2012,01,24,04,25,1011.45
2012,01,24,04,26,1011.61
2012,01,24,04,27,1011.65
2012,01,24,04,28,1011.58
2012,01,24,04,29,1011.62
2012,01,24,04,30,1011.46
2012,01,24,04,31,1011.35
2012,01,24,04,32,1011.35
2012,01,24,04,33,1011.35
2012,01,24,04,34,1011.22
2012,01,24,04,35,1011.24
2012,01,24,04,36,1011.48
2012,01,24,04,37,1011.61
2012,01,24,04,38,1011.74
2012,01,24,04,39,1011.72
2012,01,24,04,40,1011.59
2012,01,24,04,41,1011.58
2012,01,24,04,42,1011.58
2012,01,24,04,43,1011.58
2012,01,24,04,44,1011.58
2012,01,24,04,45,1011.46
2012,01,24,04,46,1011.48
2012,01,24,04,47,1011.38
2012,01,24,04,48,1011.31
2012,01,24,04,49,1011.24
2012,01,24,04,50,1011.12
2012,01,24,04,51,1011.11
2012,01,24,04,52,1011.04
2012,01,24,04,53,1011.04
2012,01,24,04,54,1011.04
2012,01,24,04,55,1010.91
2012,01,24,04,56,1010.87
2012,01,24,04,57,1010.80
2012,01,24,04,58,1010.77
2012,01,24,04,59,1010.80
2012,01,24,05,00,1010.90
2012,01,24,05,01,1011.04
2012,01,24,05,02,1011.07
2012,01,24,05,03,1011.24
2012,01,24,05,04,1011.37
2012,01,24,05,05,1011.47
2012,01,24,05,06,1011.48
2012,01,24,05,07,1011.45
2012,01,24,05,08,1011.35
2012,01,24,05,09,1011.24
2012,01,24,05,10,1011.18
2012,01,24,05,11,1011.14
2012,01,24,05,12,1011.21
2012,01,24,05,13,1011.24
2012,01,24,05,14,1011.31
2012,01,24,05,15,1011.24
2012,01,24,05,16,1011.21
2012,01,24,05,17,1011.14
2012,01,24,05,18,1010.98
2012,01,24,05,19,1010.87
2012,01,24,05,20,1010.84
2012,01,24,05,21,1010.84
2012,01,24,05,22,1010.87
2012,01,24,05,23,1010.80
2012,01,24,05,24,1010.84
2012,01,24,05,25,1010.80
2012,01,24,05,26,1010.74
2012,01,24,05,27,1010.67
2012,01,24,05,28,1010.63
2012,01,24,05,29,1010.63
2012,01,24,05,30,1010.57
2012,01,24,05,31,1010.57
2012,01,24,05,32,1010.60
2012,01,24,05,33,1010.63
2012,01,24,05,34,1010.60
2012,01,24,05,35,1010.60
2012,01,24,05,36,1010.67
2012,01,24,05,37,1010.60
2012,01,24,05,38,1010.53
2012,01,24,05,39,1010.43
2012,01,24,05,40,1010.36
2012,01,24,05,41,1010.33
2012,01,24,05,42,1010.36
2012,01,24,05,43,1010.43
2012,01,24,05,44,1010.43
2012,01,24,05,45,1010.40
2012,01,24,05,46,1010.40
2012,01,24,05,47,1010.46
2012,01,24,05,48,1010.50
2012,01,24,05,49,1010.36
2012,01,24,05,50,1010.20
2012,01,24,05,51,1010.13
2012,01,24,05,52,1010.16
2012,01,24,05,53,1010.23
2012,01,24,05,54,1010.19
2012,01,24,05,55,1010.26
2012,01,24,05,56,1010.30
2012,01,24,05,57,1010.14
2012,01,24,05,58,1010.19
2012,01,24,05,59,1010.19
2012,01,24,06,00,1010.09
2012,01,24,06,01,1010.13
2012,01,24,06,02,1010.09
2012,01,24,06,03,1010.13
2012,01,24,06,04,1010.06
2012,01,24,06,05,1010.02
2012,01,24,06,06,1009.99
2012,01,24,06,07,1009.99
2012,01,24,06,08,1010.06
2012,01,24,06,09,1009.99
2012,01,24,06,10,1009.87
2012,01,24,06,11,1009.79
2012,01,24,06,12,1009.75
2012,01,24,06,13,1009.82
2012,01,24,06,14,1009.79
2012,01,24,06,15,1009.82
2012,01,24,06,16,1009.82
2012,01,24,06,17,1009.86
2012,01,24,06,18,1009.86
2012,01,24,06,19,1009.82
2012,01,24,06,20,1009.73
2012,01,24,06,21,1009.65
2012,01,24,06,22,1009.58
2012,01,24,06,23,1009.58
2012,01,24,06,24,1009.52
2012,01,24,06,25,1009.48
2012,01,24,06,26,1009.55
2012,01,24,06,27,1009.55
2012,01,24,06,28,1009.58
2012,01,24,06,29,1009.52
2012,01,24,06,30,1009.37
2012,01,24,06,31,1009.35
2012,01,24,06,32,1009.31
2012,01,24,06,33,1009.28
2012,01,24,06,34,1009.35
2012,01,24,06,35,1009.26
2012,01,24,06,36,1009.21
2012,01,24,06,37,1009.28
2012,01,24,06,38,1009.28
2012,01,24,06,39,1009.31
2012,01,24,06,40,1009.19
2012,01,24,06,41,1009.18
2012,01,24,06,42,1009.14
2012,01,24,06,43,1009.18
2012,01,24,06,44,1009.21
2012,01,24,06,45,1009.18
2012,01,24,06,46,1009.11
2012,01,24,06,47,1008.98
2012,01,24,06,48,1008.94
2012,01,24,06,49,1008.78
2012,01,24,06,50,1008.74
2012,01,24,06,51,1008.70
2012,01,24,06,52,1008.74
2012,01,24,06,53,1008.67
2012,01,24,06,54,1008.53
2012,01,24,06,55,1008.57
2012,01,24,06,56,1008.57
2012,01,24,06,57,1008.64
2012,01,24,06,58,1008.60
2012,01,24,06,59,1008.57
2012,01,24,07,00,1008.57
2012,01,24,07,01,1008.48
2012,01,24,07,02,1008.52
2012,01,24,07,03,1008.57
2012,01,24,07,04,1008.53
2012,01,24,07,05,1008.60
2012,01,24,07,06,1008.53
2012,01,24,07,07,1008.53
2012,01,24,07,08,1008.47
2012,01,24,07,09,1008.50
2012,01,24,07,10,1008.47
2012,01,24,07,11,1008.47
2012,01,24,07,12,1008.47
2012,01,24,07,13,1008.43
2012,01,24,07,14,1008.59
2012,01,24,07,15,1008.64
2012,01,24,07,16,1008.60
2012,01,24,07,17,1008.51
2012,01,24,07,18,1008.43
2012,01,24,07,19,1008.31
2012,01,24,07,20,1008.30
2012,01,24,07,21,1008.23
2012,01,24,07,22,1008.20
2012,01,24,07,23,1008.10
2012,01,24,07,24,1007.99
2012,01,24,07,25,1007.99
2012,01,24,07,26,1008.03
2012,01,24,07,27,1008.03
2012,01,24,07,28,1007.99
2012,01,24,07,29,1008.08
2012,01,24,07,30,1008.13
2012,01,24,07,31,1008.13
2012,01,24,07,32,1008.16
2012,01,24,07,33,1008.23
2012,01,24,07,34,1008.33
2012,01,24,07,35,1008.33
2012,01,24,07,36,1008.26
2012,01,24,07,37,1008.23
2012,01,24,07,38,1008.16
2012,01,24,07,39,1008.07
2012,01,24,07,40,1008.09
2012,01,24,07,41,1008.13
2012,01,24,07,42,1008.03
2012,01,24,07,43,1007.90
2012,01,24,07,44,1007.89
2012,01,24,07,45,1007.73
2012,01,24,07,46,1007.62
2012,01,24,07,47,1007.59
2012,01,24,07,48,1007.55
2012,01,24,07,49,1007.46
2012,01,24,07,50,1007.42
2012,01,24,07,51,1007.33
2012,01,24,07,52,1007.32
2012,01,24,07,53,1007.25
2012,01,24,07,54,1007.32
2012,01,24,07,55,1007.28
2012,01,24,07,56,1007.28
2012,01,24,07,57,1007.28
2012,01,24,07,58,1007.25
2012,01,24,07,59,1007.34
2012,01,24,08,00,1007.28
2012,01,24,08,01,1007.21
2012,01,24,08,02,1007.25
2012,01,24,08,03,1007.32
2012,01,24,08,04,1007.28
2012,01,24,08,05,1007.28
2012,01,24,08,06,1007.28
2012,01,24,08,07,1007.32
2012,01,24,08,08,1007.25
2012,01,24,08,09,1007.34
2012,01,24,08,10,1007.38
2012,01,24,08,11,1007.38
2012,01,24,08,12,1007.45
2012,01,24,08,13,1007.38
2012,01,24,08,14,1007.28
2012,01,24,08,15,1007.12
2012,01,24,08,16,1007.21
2012,01,24,08,17,1007.28
2012,01,24,08,18,1007.28
2012,01,24,08,19,1007.13
2012,01,24,08,20,1007.04
2012,01,24,08,21,1006.92
2012,01,24,08,22,1006.94
2012,01,24,08,23,1007.01
2012,01,24,08,24,1007.01
2012,01,24,08,25,1006.89
2012,01,24,08,26,1006.88
2012,01,24,08,27,1006.84
2012,01,24,08,28,1006.81
2012,01,24,08,29,1006.72
2012,01,24,08,30,1006.83
2012,01,24,08,31,1006.88
2012,01,24,08,32,1006.97
2012,01,24,08,33,1007.01
2012,01,24,08,34,1007.08
2012,01,24,08,35,1007.08
2012,01,24,08,36,1007.11
2012,01,24,08,37,1006.99
2012,01,24,08,38,1006.91
2012,01,24,08,39,1006.91
2012,01,24,08,40,1006.82
2012,01,24,08,41,1006.68
2012,01,24,08,42,1006.74
2012,01,24,08,43,1006.81
2012,01,24,08,44,1006.74
2012,01,24,08,45,1006.67
2012,01,24,08,46,1006.60
2012,01,24,08,47,1006.67
2012,01,24,08,48,1006.76
2012,01,24,08,49,1006.67
2012,01,24,08,50,1006.60
2012,01,24,08,51,1006.57
2012,01,24,08,52,1006.54
2012,01,24,08,53,1006.47
2012,01,24,08,54,1006.50
2012,01,24,08,55,1006.56
2012,01,24,08,56,1006.50
2012,01,24,08,57,1006.44
2012,01,24,08,58,1006.37
2012,01,24,08,59,1006.37
2012,01,24,09,00,1006.37
2012,01,24,09,01,1006.30
2012,01,24,09,02,1006.27
2012,01,24,09,03,1006.30
2012,01,24,09,04,1006.27
2012,01,24,09,05,1006.27
2012,01,24,09,06,1006.23
2012,01,24,09,07,1006.20
2012,01,24,09,08,1006.26
2012,01,24,09,09,1006.30
2012,01,24,09,10,1006.37
2012,01,24,09,11,1006.37
2012,01,24,09,12,1006.46
2012,01,24,09,13,1006.50
2012,01,24,09,14,1006.57
2012,01,24,09,15,1006.66
2012,01,24,09,16,1006.74
2012,01,24,09,17,1006.61
2012,01,24,09,18,1006.57
2012,01,24,09,19,1006.60
2012,01,24,09,20,1006.60
2012,01,24,09,21,1006.41
2012,01,24,09,22,1006.44
2012,01,24,09,23,1006.49
2012,01,24,09,24,1006.44
2012,01,24,09,25,1006.50
2012,01,24,09,26,1006.47
2012,01,24,09,27,1006.44
2012,01,24,09,28,1006.47
2012,01,24,09,29,1006.41
2012,01,24,09,30,1006.47
2012,01,24,09,31,1006.54
2012,01,24,09,32,1006.41
2012,01,24,09,33,1006.28
2012,01,24,09,34,1006.33
2012,01,24,09,35,1006.30
2012,01,24,09,36,1006.33
2012,01,24,09,37,1006.30
2012,01,24,09,38,1006.37
2012,01,24,09,39,1006.30
2012,01,24,09,40,1006.27
2012,01,24,09,41,1006.30
2012,01,24,09,42,1006.27
2012,01,24,09,43,1006.23
2012,01,24,09,44,1006.11
2012,01,24,09,45,1006.10
2012,01,24,09,46,1006.06
2012,01,24,09,47,1006.10
2012,01,24,09,48,1006.16
2012,01,24,09,49,1006.13
2012,01,24,09,50,1006.20
2012,01,24,09,51,1006.04
2012,01,24,09,52,1006.15
2012,01,24,09,53,1006.16
2012,01,24,09,54,1006.13
2012,01,24,09,55,1006.16
2012,01,24,09,56,1006.13
2012,01,24,09,57,1006.13
2012,01,24,09,58,1006.03
2012,01,24,09,59,1005.96
2012,01,24,10,00,1005.93
2012,01,24,10,01,1006.05
2012,01,24,10,02,1006.15
2012,01,24,10,03,1006.13
2012,01,24,10,04,1005.84
2012,01,24,10,05,1005.73
2012,01,24,10,06,1005.79
2012,01,24,10,07,1006.01
2012,01,24,10,08,1006.03
2012,01,24,10,09,1006.06
2012,01,24,10,10,1005.97
2012,01,24,10,11,1006.03
2012,01,24,10,12,1005.87
2012,01,24,10,13,1005.89
2012,01,24,10,14,1005.77
2012,01,24,10,15,1006.00
2012,01,24,10,16,1006.03
2012,01,24,10,17,1005.94
2012,01,24,10,18,1005.96
2012,01,24,10,19,1006.05
2012,01,24,10,20,1006.15
2012,01,24,10,21,1006.20
2012,01,24,10,22,1006.11
2012,01,24,10,23,1006.03
2012,01,24,10,24,1006.03
2012,01,24,10,25,1006.03
2012,01,24,10,26,1006.03
2012,01,24,10,27,1005.96
2012,01,24,10,28,1005.96
2012,01,24,10,29,1005.99
2012,01,24,10,30,1005.87
2012,01,24,10,31,1005.77
2012,01,24,10,32,1005.82
2012,01,24,10,33,1005.76
2012,01,24,10,34,1005.69
2012,01,24,10,35,1005.63
2012,01,24,10,36,1005.62
2012,01,24,10,37,1005.46
2012,01,24,10,38,1005.40
2012,01,24,10,39,1005.42
2012,01,24,10,40,1005.33
2012,01,24,10,41,1005.32
2012,01,24,10,42,1005.16
2012,01,24,10,43,1005.15
2012,01,24,10,44,1005.08
2012,01,24,10,45,1004.98
2012,01,24,10,46,1004.98
2012,01,24,10,47,1004.89
2012,01,24,10,48,1004.78
2012,01,24,10,49,1004.62
2012,01,24,10,50,1004.51
2012,01,24,10,51,1004.44
2012,01,24,10,52,1004.40
2012,01,24,10,53,1004.28
2012,01,24,10,54,1004.23
2012,01,24,10,55,1004.18
2012,01,24,10,56,1004.27
2012,01,24,10,57,1004.30
2012,01,24,10,58,1004.34
2012,01,24,10,59,1004.34
2012,01,24,11,00,1004.37
2012,01,24,11,01,1004.40
2012,01,24,11,02,1004.40
2012,01,24,11,03,1004.44
2012,01,24,11,04,1004.47
2012,01,24,11,05,1004.38
2012,01,24,11,06,1004.28
2012,01,24,11,07,1004.18
2012,01,24,11,08,1004.02
2012,01,24,11,09,1004.03
2012,01,24,11,10,1004.12
2012,01,24,11,11,1004.28
2012,01,24,11,12,1004.40
2012,01,24,11,13,1004.66
2012,01,24,11,14,1004.67
2012,01,24,11,15,1004.67
2012,01,24,11,16,1004.67
2012,01,24,11,17,1004.64
2012,01,24,11,18,1004.73
2012,01,24,11,19,1004.81
2012,01,24,11,20,1004.87
2012,01,24,11,21,1004.95
2012,01,24,11,22,1005.04
2012,01,24,11,23,1005.01
2012,01,24,11,24,1004.95
2012,01,24,11,25,1004.76
2012,01,24,11,26,1004.74
2012,01,24,11,27,1004.62
2012,01,24,11,28,1004.61
2012,01,24,11,29,1004.45
2012,01,24,11,30,1004.31
2012,01,24,11,31,1004.23
2012,01,24,11,32,1003.97
2012,01,24,11,33,1003.87
2012,01,24,11,34,1003.86
2012,01,24,11,35,1003.80
2012,01,24,11,36,1003.76
2012,01,24,11,37,1003.73
2012,01,24,11,38,1003.67
2012,01,24,11,39,1003.73
2012,01,24,11,40,1003.60
2012,01,24,11,41,1003.47
2012,01,24,11,42,1003.42
2012,01,24,11,43,1003.27
2012,01,24,11,44,1003.29
2012,01,24,11,45,1003.29
2012,01,24,11,46,1003.19
2012,01,24,11,47,1003.15
2012,01,24,11,48,1003.15
2012,01,24,11,49,1003.12
2012,01,24,11,50,1003.12
2012,01,24,11,51,1003.12
2012,01,24,11,52,1003.24
2012,01,24,11,53,1003.16
2012,01,24,11,54,1002.99
2012,01,24,11,55,1002.98
2012,01,24,11,56,1003.04
2012,01,24,11,57,1003.15
2012,01,24,11,58,1003.08
2012,01,24,11,59,1002.89
2012,01,24,12,00,1002.88
2012,01,24,12,01,1002.97
2012,01,24,12,02,1002.98
2012,01,24,12,03,1003.08
2012,01,24,12,04,1003.12
2012,01,24,12,05,1003.08
2012,01,24,12,06,1002.98
2012,01,24,12,07,1003.07
2012,01,24,12,08,1003.27
2012,01,24,12,09,1003.35
2012,01,24,12,10,1003.26
2012,01,24,12,11,1003.31
2012,01,24,12,12,1003.09
2012,01,24,12,13,1002.98
2012,01,24,12,14,1002.95
2012,01,24,12,15,1002.95
2012,01,24,12,16,1002.82
2012,01,24,12,17,1002.55
2012,01,24,12,18,1002.42
2012,01,24,12,19,1002.37
2012,01,24,12,20,1002.21
2012,01,24,12,21,1001.96
2012,01,24,12,22,1001.75
2012,01,24,12,23,1001.83
2012,01,24,12,24,1002.06
2012,01,24,12,25,1001.94
2012,01,24,12,26,1001.90
2012,01,24,12,27,1001.96
2012,01,24,12,28,1002.00
2012,01,24,12,29,1001.87
2012,01,24,12,30,1001.90
2012,01,24,12,31,1002.08
2012,01,24,12,32,1001.75
2012,01,24,12,33,1001.80
2012,01,24,12,34,1001.65
2012,01,24,12,35,1001.35
2012,01,24,12,36,1001.25
2012,01,24,12,37,1001.22
2012,01,24,12,38,1001.04
2012,01,24,12,39,1000.95
2012,01,24,12,40,1001.04
2012,01,24,12,41,1000.96
2012,01,24,12,42,1000.66
2012,01,24,12,43,1000.52
2012,01,24,12,44,1000.54
2012,01,24,12,45,1000.49
2012,01,24,12,46,1000.41
2012,01,24,12,47,1000.32
2012,01,24,12,48,1000.21
2012,01,24,12,49,1000.14
2012,01,24,12,50,1000.30
2012,01,24,12,51,1000.49
2012,01,24,12,52,1000.60
2012,01,24,12,53,1000.67
2012,01,24,12,54,1000.68
2012,01,24,12,55,1000.61
2012,01,24,12,56,1000.67
2012,01,24,12,57,1000.91
2012,01,24,12,58,1001.16
2012,01,24,12,59,1001.15
2012,01,24,13,00,1001.19
2012,01,24,13,01,1001.19
2012,01,24,13,02,1001.15
2012,01,24,13,03,1001.15
2012,01,24,13,04,1001.24
2012,01,24,13,05,1001.38
2012,01,24,13,06,1001.46
2012,01,24,13,07,1001.49
2012,01,24,13,08,1001.43
2012,01,24,13,09,1001.57
2012,01,24,13,10,1001.68
2012,01,24,13,11,1001.51
2012,01,24,13,12,1001.43
2012,01,24,13,13,1001.36
2012,01,24,13,14,1001.39
2012,01,24,13,15,1001.10
2012,01,24,13,16,1000.90
2012,01,24,13,17,1000.70
2012,01,24,13,18,1000.64
2012,01,24,13,19,1000.45
2012,01,24,13,20,1000.48
2012,01,24,13,21,1000.35
2012,01,24,13,22,1000.21
2012,01,24,13,23,1000.38
2012,01,24,13,24,1000.50
2012,01,24,13,25,1000.60
2012,01,24,13,26,1000.77
2012,01,24,13,27,1000.75
2012,01,24,13,28,1000.78
2012,01,24,13,29,1000.75
2012,01,24,13,30,1000.87
2012,01,24,13,31,1000.92
2012,01,24,13,32,1000.86
2012,01,24,13,33,1000.69
2012,01,24,13,34,1000.53
2012,01,24,13,35,1000.38
2012,01,24,13,36,1000.32
2012,01,24,13,37,1000.37
2012,01,24,13,38,1000.34
2012,01,24,13,39,1000.16
2012,01,24,13,40,999.99
2012,01,24,13,41,999.93
2012,01,24,13,42,999.90
2012,01,24,13,43,999.83
2012,01,24,13,44,999.74
2012,01,24,13,45,999.64
2012,01,24,13,46,999.66
2012,01,24,13,47,999.63
2012,01,24,13,48,999.57
2012,01,24,13,49,999.53
2012,01,24,13,50,999.30
2012,01,24,13,51,999.16
2012,01,24,13,52,999.12
2012,01,24,13,53,999.22
2012,01,24,13,54,999.07
2012,01,24,13,55,998.90
2012,01,24,13,56,998.66
2012,01,24,13,57,998.61
2012,01,24,13,58,998.52
2012,01,24,13,59,998.44
2012,01,24,14,00,998.50
2012,01,24,14,01,998.54
2012,01,24,14,02,998.69
2012,01,24,14,03,998.77
2012,01,24,14,04,998.69
2012,01,24,14,05,998.84
2012,01,24,14,06,998.88
2012,01,24,14,07,998.92
2012,01,24,14,08,999.04
2012,01,24,14,09,999.14
2012,01,24,14,10,999.10
2012,01,24,14,11,999.09
2012,01,24,14,12,999.14
2012,01,24,14,13,998.97
2012,01,24,14,14,998.99
2012,01,24,14,15,998.99
2012,01,24,14,16,998.79
2012,01,24,14,17,998.87
2012,01,24,14,18,998.92
2012,01,24,14,19,999.01
2012,01,24,14,20,998.99
2012,01,24,14,21,998.89
2012,01,24,14,22,998.72
2012,01,24,14,23,998.71
2012,01,24,14,24,998.61
2012,01,24,14,25,998.70
2012,01,24,14,26,998.66
2012,01,24,14,27,998.52
2012,01,24,14,28,998.51
2012,01,24,14,29,998.48
2012,01,24,14,30,998.42
2012,01,24,14,31,998.35
2012,01,24,14,32,998.31
2012,01,24,14,33,998.12
2012,01,24,14,34,997.98
2012,01,24,14,35,997.71
2012,01,24,14,36,997.70
2012,01,24,14,37,997.88
2012,01,24,14,38,997.87
2012,01,24,14,39,997.68
2012,01,24,14,40,997.52
2012,01,24,14,41,997.37
2012,01,24,14,42,997.33
2012,01,24,14,43,997.26
2012,01,24,14,44,997.11
2012,01,24,14,45,997.21
2012,01,24,14,46,997.45
2012,01,24,14,47,997.50
2012,01,24,14,48,997.13
2012,01,24,14,49,996.81
2012,01,24,14,50,996.75
2012,01,24,14,51,997.12
2012,01,24,14,52,997.47
2012,01,24,14,53,997.74
2012,01,24,14,54,997.93
2012,01,24,14,55,997.94
2012,01,24,14,56,997.88
2012,01,24,14,57,997.54
2012,01,24,14,58,997.22
2012,01,24,14,59,997.16
2012,01,24,15,00,997.31
2012,01,24,15,01,997.36
2012,01,24,15,02,997.33
2012,01,24,15,03,997.45
2012,01,24,15,04,997.61
2012,01,24,15,05,997.85
2012,01,24,15,06,997.96
2012,01,24,15,07,998.00
2012,01,24,15,08,998.00
2012,01,24,15,09,997.94
2012,01,24,15,10,997.67
2012,01,24,15,11,997.24
2012,01,24,15,12,996.86
2012,01,24,15,13,996.67
2012,01,24,15,14,996.68
2012,01,24,15,15,996.74
2012,01,24,15,16,996.78
2012,01,24,15,17,997.08
2012,01,24,15,18,997.31
2012,01,24,15,19,997.54
2012,01,24,15,20,997.80
2012,01,24,15,21,998.03
2012,01,24,15,22,997.91
2012,01,24,15,23,997.75
2012,01,24,15,24,997.64
2012,01,24,15,25,997.56
2012,01,24,15,26,997.32
2012,01,24,15,27,997.02
2012,01,24,15,28,996.79
2012,01,24,15,29,996.38
2012,01,24,15,30,996.12
2012,01,24,15,31,996.02
2012,01,24,15,32,996.06
2012,01,24,15,33,996.38
2012,01,24,15,34,996.84
2012,01,24,15,35,997.17
2012,01,24,15,36,997.52
2012,01,24,15,37,997.62
2012,01,24,15,38,997.66
2012,01,24,15,39,997.54
2012,01,24,15,40,997.50
2012,01,24,15,41,997.44
2012,01,24,15,42,997.30
2012,01,24,15,43,997.07
2012,01,24,15,44,996.86
2012,01,24,15,45,996.67
2012,01,24,15,46,996.50
2012,01,24,15,47,996.51
2012,01,24,15,48,996.48
2012,01,24,15,49,996.58
2012,01,24,15,50,996.71
2012,01,24,15,51,996.66
2012,01,24,15,52,996.65
2012,01,24,15,53,996.92
2012,01,24,15,54,997.04
2012,01,24,15,55,997.05
2012,01,24,15,56,996.96
2012,01,24,15,57,997.01
2012,01,24,15,58,996.90
2012,01,24,15,59,996.73
2012,01,24,16,00,996.53
2012,01,24,16,01,996.57
2012,01,24,16,02,996.76
2012,01,24,16,03,996.91
2012,01,24,16,04,996.98